Date String (YYYY-MM-DD hh:mm:ss) UTC,Instrument flags,Ambient pressure (hPa),Sample flow (lpm),Bypass flow (lpm),Sample temperature (°C),Ambient temperature (°C),ASC tube jacket temperature (°C),LED temperature (°C),Box temperature (°C),Sample RH (%),Span deviation,Mass concentration (μg/m³),Mass concentration (μg/m³),Mass concentration (μg/m³)
DateTimeUTC,F1_M11,P_M11,Q1_M11,Q2_M11,T1_M11,T2_M11,T3_M11,T4_M11,T5_M11,U1_M11,ZSPAN_M11,X2_M11,X0_M11,X1_M11
2021-11-20 04:00:00,,0824.0,5.01,0.00,26.7,25.9,00.0,35.8,28.5,10.6,0000.0,0003.80,0006.40,0003.41
2021-11-20 04:01:00,,0824.1,4.99,0.00,26.7,25.9,00.0,35.8,28.5,10.6,0000.0,0003.80,0006.84,0003.42
2021-11-20 04:02:00,,0824.0,5.00,0.00,26.7,25.9,00.0,35.8,28.5,10.7,0000.0,0003.80,0006.75,0003.44
2021-11-20 04:03:00,,0824.0,5.01,0.00,26.7,25.9,00.0,35.8,28.5,10.7,0000.0,0003.82,0006.68,0003.46
2021-11-20 04:04:00,,0824.0,5.01,0.00,26.7,25.9,00.0,35.8,28.5,10.7,0000.0,0003.82,0006.74,0003.47
2021-11-20 04:05:00,,0824.0,4.99,0.00,26.7,25.9,00.0,35.8,28.5,10.7,0000.0,0003.78,0006.49,0003.46
2021-11-20 04:06:00,,0824.0,5.00,0.00,26.7,25.9,00.0,35.8,28.5,10.6,0000.0,0003.76,0006.40,0003.47
2021-11-20 04:07:00,,0824.0,5.01,0.00,26.7,25.9,00.0,35.8,28.5,10.7,0000.0,0003.81,0007.53,0003.48
2021-11-20 04:08:00,,0824.1,4.99,0.00,26.7,25.9,00.0,35.7,28.5,10.7,0000.0,0003.82,0007.93,0003.50
2021-11-20 04:09:00,,0824.0,5.01,0.00,26.7,25.9,00.0,35.7,28.5,10.7,0000.0,0003.86,0008.24,0003.52
2021-11-20 04:10:00,,0824.0,5.00,0.00,26.7,25.9,00.0,35.7,28.5,10.7,0000.0,0003.85,0008.21,0003.53
2021-11-20 04:11:00,,0824.0,4.99,0.00,26.7,25.9,00.0,35.7,28.5,10.7,0000.0,0003.85,0008.18,0003.53
2021-11-20 04:12:00,,0824.0,4.99,0.00,26.7,25.9,00.0,35.7,28.5,10.5,0000.0,0003.85,0007.95,0003.53
2021-11-20 04:13:00,,0824.1,5.01,0.00,26.7,25.9,00.0,35.7,28.5,10.7,0000.0,0003.83,0007.97,0003.52
2021-11-20 04:14:00,,0824.0,4.99,0.00,26.7,25.9,00.0,35.7,28.5,10.8,0000.0,0003.81,0007.88,0003.52
2021-11-20 04:15:00,,0823.9,5.00,0.00,26.7,25.9,00.0,35.7,28.5,10.8,0000.0,0003.85,0008.07,0003.53
2021-11-20 04:16:00,,0823.9,5.00,0.00,26.7,25.9,00.0,35.7,28.5,10.7,0000.0,0003.86,0008.10,0003.55
2021-11-20 04:17:00,,0823.9,5.01,0.00,26.7,26.0,00.0,35.7,28.5,10.5,0000.0,0003.90,0008.19,0003.55
2021-11-20 04:18:00,,0824.0,5.00,0.00,26.7,26.0,00.0,35.7,28.5,10.4,0000.0,0003.89,0007.66,0003.54
2021-11-20 04:19:00,,0823.9,4.98,0.00,26.7,26.0,00.0,35.7,28.5,10.2,0000.0,0003.87,0007.12,0003.51
2021-11-20 04:20:00,,0824.0,5.00,0.00,26.7,26.0,00.0,35.7,28.6,10.3,0000.0,0003.84,0006.56,0003.48
2021-11-20 04:21:00,,0823.9,5.01,0.00,26.7,26.0,00.0,35.7,28.5,10.3,0000.0,0003.83,0006.60,0003.46
2021-11-20 04:22:00,,0823.9,4.98,0.00,26.8,26.0,00.0,35.7,28.5,10.3,0000.0,0003.83,0006.69,0003.43
2021-11-20 04:23:00,,0823.8,5.02,0.00,26.8,26.0,00.0,35.7,28.5,10.2,0000.0,0003.80,0006.66,0003.40
2021-11-20 04:24:00,,0823.7,4.99,0.00,26.8,26.0,00.0,35.7,28.5,10.1,0000.0,0003.76,0006.33,0003.37
2021-11-20 04:25:00,,0823.8,5.00,0.00,26.8,26.0,00.0,35.7,28.5,10.1,0000.0,0003.72,0006.19,0003.32
2021-11-20 04:26:00,,0823.8,5.01,0.00,26.8,26.0,00.0,35.7,28.5,10.1,0000.0,0003.65,0005.74,0003.27
2021-11-20 04:27:00,,0823.8,4.99,0.00,26.8,26.0,00.0,35.8,28.5,10.1,0000.0,0003.63,0005.72,0003.21
2021-11-20 04:28:00,,0823.8,5.00,0.00,26.8,26.0,00.0,35.8,28.5,10.2,0000.0,0003.62,0006.71,0003.19
2021-11-20 04:29:00,,0823.9,5.01,0.00,26.8,26.0,00.0,35.8,28.6,10.3,0000.0,0003.59,0007.39,0003.17
2021-11-20 04:30:00,,0824.0,4.99,0.00,26.8,26.0,00.0,35.8,28.6,10.3,0000.0,0003.58,0007.55,0003.17
2021-11-20 04:31:00,,0824.0,5.01,0.00,26.8,26.0,00.0,35.8,28.6,10.3,0000.0,0003.58,0007.55,0003.17
2021-11-20 04:32:00,,0824.0,4.99,0.00,26.8,26.0,00.0,35.8,28.7,10.3,0000.0,0003.59,0007.53,0003.19
2021-11-20 04:33:00,,0824.1,5.01,0.00,26.9,26.1,00.0,35.8,28.7,10.3,0000.0,0003.61,0007.64,0003.21
2021-11-20 04:34:00,,0824.1,5.00,0.00,26.9,26.1,00.0,35.8,28.7,10.3,0000.0,0003.63,0007.71,0003.23
2021-11-20 04:35:00,,0824.1,5.00,0.00,26.9,26.1,00.0,35.8,28.7,10.3,0000.0,0003.66,0007.78,0003.26
2021-11-20 04:36:00,,0824.1,5.01,0.00,26.9,26.1,00.0,35.8,28.7,10.3,0000.0,0003.71,0008.57,0003.29
2021-11-20 04:37:00,,0824.0,4.98,0.00,26.9,26.1,00.0,35.8,28.7,10.3,0000.0,0003.72,0008.82,0003.32
2021-11-20 04:38:00,,0824.1,5.01,0.00,26.9,26.1,00.0,35.8,28.7,10.4,0000.0,0003.73,0008.81,0003.36
2021-11-20 04:39:00,,0824.1,4.99,0.00,26.9,26.1,00.0,35.8,28.7,10.5,0000.0,0003.73,0008.37,0003.38
2021-11-20 04:40:00,,0824.0,5.01,0.00,26.9,26.1,00.0,35.8,28.7,10.6,0000.0,0003.76,0007.82,0003.42
2021-11-20 04:41:00,,0824.0,5.01,0.00,26.8,26.1,00.0,35.8,28.6,10.6,0000.0,0003.81,0007.67,0003.44
2021-11-20 04:42:00,,0824.0,4.99,0.00,26.8,26.1,00.0,35.8,28.6,10.7,0000.0,0003.82,0007.68,0003.46
2021-11-20 04:43:00,,0824.0,5.01,0.00,26.8,26.0,00.0,35.8,28.6,10.7,0000.0,0003.88,0007.75,0003.48
2021-11-20 04:44:00,,0824.0,5.00,0.00,26.8,26.0,00.0,35.8,28.6,10.7,0000.0,0003.90,0007.84,0003.49
2021-11-20 04:45:00,,0824.0,5.00,0.00,26.8,26.0,00.0,35.8,28.6,10.6,0000.0,0003.92,0007.77,0003.51
2021-11-20 04:46:00,,0824.0,5.00,0.00,26.8,26.0,00.0,35.8,28.6,10.5,0000.0,0003.95,0007.83,0003.53
2021-11-20 04:47:00,,0824.0,5.00,0.00,26.8,26.0,00.0,35.8,28.6,10.6,0000.0,0003.98,0007.07,0003.54
2021-11-20 04:48:00,,0823.9,5.00,0.00,26.8,26.0,00.0,35.8,28.6,10.5,0000.0,0004.01,0006.95,0003.55
2021-11-20 04:49:00,,0823.9,4.98,0.00,26.8,26.0,00.0,35.8,28.6,10.5,0000.0,0004.03,0007.46,0003.55
2021-11-20 04:50:00,,0823.9,5.01,0.00,26.8,26.0,00.0,35.8,28.6,10.5,0000.0,0004.03,0007.78,0003.55
2021-11-20 04:51:00,,0823.8,4.99,0.00,26.8,26.0,00.0,35.8,28.6,10.5,0000.0,0004.01,0007.88,0003.54
2021-11-20 04:52:00,,0823.8,5.01,0.00,26.8,26.0,00.0,35.8,28.6,10.5,0000.0,0003.98,0008.25,0003.54
2021-11-20 04:53:00,,0823.9,4.99,0.00,26.8,26.0,00.0,35.8,28.6,10.6,0000.0,0003.96,0008.71,0003.53
2021-11-20 04:54:00,,0824.0,5.00,0.00,26.8,26.0,00.0,35.8,28.6,10.6,0000.0,0003.93,0009.01,0003.52
2021-11-20 04:55:00,,0824.0,4.99,0.00,26.8,26.0,00.0,35.8,28.6,10.6,0000.0,0003.90,0008.91,0003.52
2021-11-20 04:56:00,,0824.0,5.01,0.00,26.8,26.0,00.0,35.8,28.6,10.6,0000.0,0003.90,0009.59,0003.52
2021-11-20 04:57:00,,0823.9,4.99,0.00,26.8,26.0,00.0,35.8,28.6,10.6,0000.0,0003.91,0009.58,0003.53
2021-11-20 04:58:00,,0823.8,4.99,0.00,26.8,26.0,00.0,35.8,28.6,10.6,0000.0,0003.90,0009.52,0003.52
2021-11-20 04:59:00,,0823.8,5.01,0.00,26.8,26.1,00.0,35.8,28.6,10.6,0000.0,0003.87,0009.37,0003.52
